Voltar ao catálogo

CZ-6A DEB

AtivoSSO
NORAD 54278·DEBRIS·🇨🇳 China

Lançado Nov 11, 2022 de Taiyuan Satellite Launch Center

Loading…

Próximas Passagens (próximas 24 horas)

TLE

AtualizadoSource: Space-Track

Época: Sep 13, 2026, 23:06 UTC

1 54278U 22151V   26256.96282669  .00003362  00000-0  11533-2 0  9995
2 54278  98.6692 253.4037 0104012 259.5598  99.3852 14.33805489198091

Acompanhe CZ-6A DEB em tempo real com AllMySat

Download on the App Store